Snohomish County (Paine Field) Airport Everett US
ICAO: KPAE
IATA: PAE
Category: Medium
Scheduled Services: No

Elevation: 606 ft
TransAlt. 18000 ft.

Airport Communications:
ATIS:128.65
CLNC DEL:126.75
SEATTLE CNTR:128.5
CTAF:132.95
GND:121.8
AR OPS:34.1
SEATTLE RDO:132.96
ACFT ARR E OF CNTRLN ORRY 16L/34R:120.2
ACFT ARR W OF CNTRLN ORRY 16R/34L:132.95
UNICOM:122.95

KPAE Zoom In..

Runways:

(A) RW 11 length 4504 ft width 75 ft
---- / hdg 117

(B) RW 16L length 3004 ft width 75 ft
---- / hdg 163

(C) RW 16R length 9010 ft width 150 ft
ILS 109.30 / hdg 162

(D) RW 29 length 4504 ft width 75 ft
---- / hdg 297

(E) RW 34L length 9010 ft width 150 ft
---- / hdg 342

(F) RW 34R length 3004 ft width 75 ft
---- / hdg 343

Location; KPAE
Day. 13 / Time. 12.53 Zulu
* Altimeter: 30.14
* Temperature: 11° c. 51.8°f.
* Wind from: 020° Speed 05 kn.
Dewpoint: 09° c.
Visibility: 10 Statute Miles.
Clouds: Clear (automated report).

KPAE 131253Z AUTO 02005KT 10SM CLR 11/09 A3014 RMK AO2 SLP205 T01110089

Going to: --> -->


Wind From 020°
Speed 05 kn.

 
 
jpsmedia worldairports.se 2020   terms of use